Year,Month,Day,Hour,Minute,Value (Times are PST for temperature in C)
2014,05,01,00,00,11.70
2014,05,01,00,01,11.70
2014,05,01,00,02,11.60
2014,05,01,00,03,11.60
2014,05,01,00,04,11.60
2014,05,01,00,05,11.60
2014,05,01,00,06,11.60
2014,05,01,00,07,11.60
2014,05,01,00,08,11.60
2014,05,01,00,09,11.50
2014,05,01,00,10,11.50
2014,05,01,00,11,11.50
2014,05,01,00,12,11.40
2014,05,01,00,13,11.40
2014,05,01,00,14,11.40
2014,05,01,00,15,11.40
2014,05,01,00,16,11.40
2014,05,01,00,17,11.30
2014,05,01,00,18,11.30
2014,05,01,00,19,11.30
2014,05,01,00,20,11.30
2014,05,01,00,21,11.30
2014,05,01,00,22,11.30
2014,05,01,00,23,11.30
2014,05,01,00,24,11.20
2014,05,01,00,25,11.20
2014,05,01,00,26,11.20
2014,05,01,00,27,11.20
2014,05,01,00,28,11.20
2014,05,01,00,29,11.20
2014,05,01,00,30,11.20
2014,05,01,00,31,11.20
2014,05,01,00,32,11.10
2014,05,01,00,33,11.10
2014,05,01,00,34,11.10
2014,05,01,00,35,11.10
2014,05,01,00,36,11.10
2014,05,01,00,37,11.10
2014,05,01,00,38,11.10
2014,05,01,00,39,11.10
2014,05,01,00,40,11.00
2014,05,01,00,41,11.00
2014,05,01,00,42,11.00
2014,05,01,00,43,11.00
2014,05,01,00,44,11.00
2014,05,01,00,45,10.90
2014,05,01,00,46,10.90
2014,05,01,00,47,10.90
2014,05,01,00,48,10.90
2014,05,01,00,49,10.90
2014,05,01,00,50,10.90
2014,05,01,00,51,10.80
2014,05,01,00,52,10.80
2014,05,01,00,53,10.80
2014,05,01,00,54,10.80
2014,05,01,00,55,10.80
2014,05,01,00,56,10.80
2014,05,01,00,57,10.80
2014,05,01,00,58,10.80
2014,05,01,00,59,10.70
2014,05,01,01,00,10.70
2014,05,01,01,01,10.70
2014,05,01,01,02,10.70
2014,05,01,01,03,10.70
2014,05,01,01,04,10.70
2014,05,01,01,05,10.70
2014,05,01,01,06,10.70
2014,05,01,01,07,10.70
2014,05,01,01,08,10.60
2014,05,01,01,09,10.60
2014,05,01,01,10,10.60
2014,05,01,01,11,10.60
2014,05,01,01,12,10.60
2014,05,01,01,13,10.60
2014,05,01,01,14,10.60
2014,05,01,01,15,10.50
2014,05,01,01,16,10.50
2014,05,01,01,17,10.50
2014,05,01,01,18,10.50
2014,05,01,01,19,10.50
2014,05,01,01,20,10.50
2014,05,01,01,21,10.50
2014,05,01,01,22,10.40
2014,05,01,01,23,10.40
2014,05,01,01,24,10.40
2014,05,01,01,25,10.40
2014,05,01,01,26,10.40
2014,05,01,01,27,10.40
2014,05,01,01,28,10.40
2014,05,01,01,29,10.40
2014,05,01,01,30,10.40
2014,05,01,01,31,10.40
2014,05,01,01,32,10.40
2014,05,01,01,33,10.40
2014,05,01,01,34,10.30
2014,05,01,01,35,10.30
2014,05,01,01,36,10.30
2014,05,01,01,37,10.30
2014,05,01,01,38,10.30
2014,05,01,01,39,10.30
2014,05,01,01,40,10.30
2014,05,01,01,41,10.30
2014,05,01,01,42,10.30
2014,05,01,01,43,10.30
2014,05,01,01,44,10.30
2014,05,01,01,45,10.20
2014,05,01,01,46,10.20
2014,05,01,01,47,10.20
2014,05,01,01,48,10.20
2014,05,01,01,49,10.20
2014,05,01,01,50,10.20
2014,05,01,01,51,10.20
2014,05,01,01,52,10.20
2014,05,01,01,53,10.20
2014,05,01,01,54,10.10
2014,05,01,01,55,10.10
2014,05,01,01,56,10.10
2014,05,01,01,57,10.10
2014,05,01,01,58,10.10
2014,05,01,01,59,10.10
2014,05,01,02,00,10.10
2014,05,01,02,01,10.10
2014,05,01,02,02,10.00
2014,05,01,02,03,10.00
2014,05,01,02,04,10.00
2014,05,01,02,05,10.00
2014,05,01,02,06,10.00
2014,05,01,02,07,10.00
2014,05,01,02,08,10.00
2014,05,01,02,09,10.00
2014,05,01,02,10,10.00
2014,05,01,02,11,10.00
2014,05,01,02,12,9.90
2014,05,01,02,13,9.90
2014,05,01,02,14,9.90
2014,05,01,02,15,9.90
2014,05,01,02,16,9.90
2014,05,01,02,17,9.90
2014,05,01,02,18,9.90
2014,05,01,02,19,9.90
2014,05,01,02,20,9.90
2014,05,01,02,21,9.90
2014,05,01,02,22,9.90
2014,05,01,02,23,9.80
2014,05,01,02,24,9.80
2014,05,01,02,25,9.80
2014,05,01,02,26,9.80
2014,05,01,02,27,9.80
2014,05,01,02,28,9.80
2014,05,01,02,29,9.80
2014,05,01,02,30,9.80
2014,05,01,02,31,9.70
2014,05,01,02,32,9.70
2014,05,01,02,33,9.70
2014,05,01,02,34,9.70
2014,05,01,02,35,9.70
2014,05,01,02,36,9.70
2014,05,01,02,37,9.70
2014,05,01,02,38,9.70
2014,05,01,02,39,9.70
2014,05,01,02,40,9.70
2014,05,01,02,41,9.60
2014,05,01,02,42,9.60
2014,05,01,02,43,9.60
2014,05,01,02,44,9.60
2014,05,01,02,45,9.60
2014,05,01,02,46,9.60
2014,05,01,02,47,9.60
2014,05,01,02,48,9.60
2014,05,01,02,49,9.60
2014,05,01,02,50,9.60
2014,05,01,02,51,9.60
2014,05,01,02,52,9.60
2014,05,01,02,53,9.60
2014,05,01,02,54,9.50
2014,05,01,02,55,9.50
2014,05,01,02,56,9.50
2014,05,01,02,57,9.50
2014,05,01,02,58,9.50
2014,05,01,02,59,9.40
2014,05,01,03,00,9.40
2014,05,01,03,01,9.40
2014,05,01,03,02,9.40
2014,05,01,03,03,9.40
2014,05,01,03,04,9.40
2014,05,01,03,05,9.30
2014,05,01,03,06,9.30
2014,05,01,03,07,9.30
2014,05,01,03,08,9.30
2014,05,01,03,09,9.30
2014,05,01,03,10,9.30
2014,05,01,03,11,9.30
2014,05,01,03,12,9.20
2014,05,01,03,13,9.20
2014,05,01,03,14,9.20
2014,05,01,03,15,9.20
2014,05,01,03,16,9.20
2014,05,01,03,17,9.20
2014,05,01,03,18,9.20
2014,05,01,03,19,9.20
2014,05,01,03,20,9.20
2014,05,01,03,21,9.20
2014,05,01,03,22,9.20
2014,05,01,03,23,9.20
2014,05,01,03,24,9.20
2014,05,01,03,25,9.10
2014,05,01,03,26,9.10
2014,05,01,03,27,9.10
2014,05,01,03,28,9.10
2014,05,01,03,29,9.10
2014,05,01,03,30,9.10
2014,05,01,03,31,9.10
2014,05,01,03,32,9.10
2014,05,01,03,33,9.10
2014,05,01,03,34,9.10
2014,05,01,03,35,9.10
2014,05,01,03,36,9.10
2014,05,01,03,37,9.10
2014,05,01,03,38,9.10
2014,05,01,03,39,9.10
2014,05,01,03,40,9.00
2014,05,01,03,41,9.00
2014,05,01,03,42,9.00
2014,05,01,03,43,9.00
2014,05,01,03,44,9.00
2014,05,01,03,45,9.00
2014,05,01,03,46,9.00
2014,05,01,03,47,9.00
2014,05,01,03,48,8.90
2014,05,01,03,49,8.90
2014,05,01,03,50,8.90
2014,05,01,03,51,8.90
2014,05,01,03,52,8.90
2014,05,01,03,53,8.90
2014,05,01,03,54,8.90
2014,05,01,03,55,8.90
2014,05,01,03,56,8.90
2014,05,01,03,57,8.90
2014,05,01,03,58,8.90
2014,05,01,03,59,8.80
2014,05,01,04,00,8.80
2014,05,01,04,01,8.80
2014,05,01,04,02,8.80
2014,05,01,04,03,8.80
2014,05,01,04,04,8.80
2014,05,01,04,05,8.80
2014,05,01,04,06,8.80
2014,05,01,04,07,8.80
2014,05,01,04,08,8.80
2014,05,01,04,09,8.80
2014,05,01,04,10,8.80
2014,05,01,04,11,8.80
2014,05,01,04,12,8.80
2014,05,01,04,13,8.80
2014,05,01,04,14,8.80
2014,05,01,04,15,8.80
2014,05,01,04,16,8.70
2014,05,01,04,17,8.70
2014,05,01,04,18,8.70
2014,05,01,04,19,8.70
2014,05,01,04,20,8.70
2014,05,01,04,21,8.70
2014,05,01,04,22,8.70
2014,05,01,04,23,8.70
2014,05,01,04,24,8.70
2014,05,01,04,25,8.70
2014,05,01,04,26,8.70
2014,05,01,04,27,8.70
2014,05,01,04,28,8.70
2014,05,01,04,29,8.70
2014,05,01,04,30,8.70
2014,05,01,04,31,8.70
2014,05,01,04,32,8.70
2014,05,01,04,33,8.70
2014,05,01,04,34,8.60
2014,05,01,04,35,8.60
2014,05,01,04,36,8.60
2014,05,01,04,37,8.60
2014,05,01,04,38,8.60
2014,05,01,04,39,8.60
2014,05,01,04,40,8.60
2014,05,01,04,41,8.60
2014,05,01,04,42,8.60
2014,05,01,04,43,8.60
2014,05,01,04,44,8.60
2014,05,01,04,45,8.60
2014,05,01,04,46,8.60
2014,05,01,04,47,8.60
2014,05,01,04,48,8.60
2014,05,01,04,49,8.60
2014,05,01,04,50,8.60
2014,05,01,04,51,8.60
2014,05,01,04,52,8.60
2014,05,01,04,53,8.60
2014,05,01,04,54,8.60
2014,05,01,04,55,8.60
2014,05,01,04,56,8.60
2014,05,01,04,57,8.50
2014,05,01,04,58,8.50
2014,05,01,04,59,8.50
2014,05,01,05,00,8.50
2014,05,01,05,01,8.50
2014,05,01,05,02,8.50
2014,05,01,05,03,8.50
2014,05,01,05,04,8.50
2014,05,01,05,05,8.40
2014,05,01,05,06,8.40
2014,05,01,05,07,8.40
2014,05,01,05,08,8.40
2014,05,01,05,09,8.40
2014,05,01,05,10,8.40
2014,05,01,05,11,8.40
2014,05,01,05,12,8.40
2014,05,01,05,13,8.40
2014,05,01,05,14,8.40
2014,05,01,05,15,8.40
2014,05,01,05,16,8.40
2014,05,01,05,17,8.40
2014,05,01,05,18,8.40
2014,05,01,05,19,8.40
2014,05,01,05,20,8.40
2014,05,01,05,21,8.40
2014,05,01,05,22,8.40
2014,05,01,05,23,8.40
2014,05,01,05,24,8.40
2014,05,01,05,25,8.40
2014,05,01,05,26,8.40
2014,05,01,05,27,8.40
2014,05,01,05,28,8.40
2014,05,01,05,29,8.30
2014,05,01,05,30,8.30
2014,05,01,05,31,8.30
2014,05,01,05,32,8.30
2014,05,01,05,33,8.30
2014,05,01,05,34,8.30
2014,05,01,05,35,8.30
2014,05,01,05,36,8.30
2014,05,01,05,37,8.30
2014,05,01,05,38,8.30
2014,05,01,05,39,8.30
2014,05,01,05,40,8.30
2014,05,01,05,41,8.30
2014,05,01,05,42,8.20
2014,05,01,05,43,8.20
2014,05,01,05,44,8.20
2014,05,01,05,45,8.20
2014,05,01,05,46,8.20
2014,05,01,05,47,8.20
2014,05,01,05,48,8.20
2014,05,01,05,49,8.20
2014,05,01,05,50,8.20
2014,05,01,05,51,8.20
2014,05,01,05,52,8.20
2014,05,01,05,53,8.20
2014,05,01,05,54,8.20
2014,05,01,05,55,8.20
2014,05,01,05,56,8.20
2014,05,01,05,57,8.20
2014,05,01,05,58,8.20
2014,05,01,05,59,8.20
2014,05,01,06,00,8.20
2014,05,01,06,01,8.20
2014,05,01,06,02,8.20
2014,05,01,06,03,8.20
2014,05,01,06,04,8.20
2014,05,01,06,05,8.20
2014,05,01,06,06,8.20
2014,05,01,06,07,8.20
2014,05,01,06,08,8.20
2014,05,01,06,09,8.20
2014,05,01,06,10,8.20
2014,05,01,06,11,8.20
2014,05,01,06,12,8.20
2014,05,01,06,13,8.20
2014,05,01,06,14,8.20
2014,05,01,06,15,8.20
2014,05,01,06,16,8.20
2014,05,01,06,17,8.20
2014,05,01,06,18,8.20
2014,05,01,06,19,8.30
2014,05,01,06,20,8.30
2014,05,01,06,21,8.30
2014,05,01,06,22,8.20
2014,05,01,06,23,8.20
2014,05,01,06,24,8.20
2014,05,01,06,25,8.20
2014,05,01,06,26,8.20
2014,05,01,06,27,8.20
2014,05,01,06,28,8.20
2014,05,01,06,29,8.20
2014,05,01,06,30,8.20
2014,05,01,06,31,8.20
2014,05,01,06,32,8.20
2014,05,01,06,33,8.20
2014,05,01,06,34,8.20
2014,05,01,06,35,8.20
2014,05,01,06,36,8.20
2014,05,01,06,37,8.20
2014,05,01,06,38,8.20
2014,05,01,06,39,8.20
2014,05,01,06,40,8.20
2014,05,01,06,41,8.30
2014,05,01,06,42,8.30
2014,05,01,06,43,8.30
2014,05,01,06,44,8.30
2014,05,01,06,45,8.30
2014,05,01,06,46,8.30
2014,05,01,06,47,8.30
2014,05,01,06,48,8.30
2014,05,01,06,49,8.30
2014,05,01,06,50,8.30
2014,05,01,06,51,8.30
2014,05,01,06,52,8.30
2014,05,01,06,53,8.30
2014,05,01,06,54,8.30
2014,05,01,06,55,8.30
2014,05,01,06,56,8.30
2014,05,01,06,57,8.30
2014,05,01,06,58,8.30
2014,05,01,06,59,8.30
2014,05,01,07,00,8.40
2014,05,01,07,01,8.40
2014,05,01,07,02,8.40
2014,05,01,07,03,8.40
2014,05,01,07,04,8.40
2014,05,01,07,05,8.40
2014,05,01,07,06,8.40
2014,05,01,07,07,8.40
2014,05,01,07,08,8.40
2014,05,01,07,09,8.40
2014,05,01,07,10,8.40
2014,05,01,07,11,8.40
2014,05,01,07,12,8.40
2014,05,01,07,13,8.40
2014,05,01,07,14,8.40
2014,05,01,07,15,8.40
2014,05,01,07,16,8.40
2014,05,01,07,17,8.40
2014,05,01,07,18,8.40
2014,05,01,07,19,8.40
2014,05,01,07,20,8.40
2014,05,01,07,21,8.40
2014,05,01,07,22,8.40
2014,05,01,07,23,8.40
2014,05,01,07,24,8.40
2014,05,01,07,25,8.40
2014,05,01,07,26,8.40
2014,05,01,07,27,8.40
2014,05,01,07,28,8.40
2014,05,01,07,29,8.40
2014,05,01,07,30,8.40
2014,05,01,07,31,8.40
2014,05,01,07,32,8.40
2014,05,01,07,33,8.40
2014,05,01,07,34,8.40
2014,05,01,07,35,8.40
2014,05,01,07,36,8.40
2014,05,01,07,37,8.40
2014,05,01,07,38,8.40
2014,05,01,07,39,8.40
2014,05,01,07,40,8.40
2014,05,01,07,41,8.40
2014,05,01,07,42,8.40
2014,05,01,07,43,8.40
2014,05,01,07,44,8.40
2014,05,01,07,45,8.40
2014,05,01,07,46,8.50
2014,05,01,07,47,8.50
2014,05,01,07,48,8.50
2014,05,01,07,49,8.50
2014,05,01,07,50,8.60
2014,05,01,07,51,8.60
2014,05,01,07,52,8.60
2014,05,01,07,53,8.60
2014,05,01,07,54,8.60
2014,05,01,07,55,8.60
2014,05,01,07,56,8.70
2014,05,01,07,57,8.70
2014,05,01,07,58,8.70
2014,05,01,07,59,8.70
2014,05,01,08,00,8.70
2014,05,01,08,01,8.70
2014,05,01,08,02,8.70
2014,05,01,08,03,8.70
2014,05,01,08,04,8.70
2014,05,01,08,05,8.70
2014,05,01,08,06,8.80
2014,05,01,08,07,8.80
2014,05,01,08,08,8.80
2014,05,01,08,09,8.80
2014,05,01,08,10,8.80
2014,05,01,08,11,8.80
2014,05,01,08,12,8.80
2014,05,01,08,13,8.90
2014,05,01,08,14,8.90
2014,05,01,08,15,8.90
2014,05,01,08,16,8.90
2014,05,01,08,17,8.90
2014,05,01,08,18,9.00
2014,05,01,08,19,9.00
2014,05,01,08,20,9.10
2014,05,01,08,21,9.10
2014,05,01,08,22,9.10
2014,05,01,08,23,9.10
2014,05,01,08,24,9.20
2014,05,01,08,25,9.20
2014,05,01,08,26,9.20
2014,05,01,08,27,9.20
2014,05,01,08,28,9.30
2014,05,01,08,29,9.30
2014,05,01,08,30,9.30
2014,05,01,08,31,9.40
2014,05,01,08,32,9.40
2014,05,01,08,33,9.50
2014,05,01,08,34,9.50
2014,05,01,08,35,9.60
2014,05,01,08,36,9.60
2014,05,01,08,37,9.60
2014,05,01,08,38,9.60
2014,05,01,08,39,9.70
2014,05,01,08,40,9.70
2014,05,01,08,41,9.80
2014,05,01,08,42,9.80
2014,05,01,08,43,9.80
2014,05,01,08,44,9.90
2014,05,01,08,45,9.90
2014,05,01,08,46,10.00
2014,05,01,08,47,10.00
2014,05,01,08,48,10.10
2014,05,01,08,49,10.10
2014,05,01,08,50,10.20
2014,05,01,08,51,10.20
2014,05,01,08,52,10.20
2014,05,01,08,53,10.30
2014,05,01,08,54,10.30
2014,05,01,08,55,10.40
2014,05,01,08,56,10.40
2014,05,01,08,57,10.50
2014,05,01,08,58,10.60
2014,05,01,08,59,10.60
2014,05,01,09,00,10.70
2014,05,01,09,01,10.80
2014,05,01,09,02,10.90
2014,05,01,09,03,11.00
2014,05,01,09,04,11.10
2014,05,01,09,05,11.20
2014,05,01,09,06,11.30
2014,05,01,09,07,11.40
2014,05,01,09,08,11.50
2014,05,01,09,09,11.60
2014,05,01,09,10,11.80
2014,05,01,09,11,11.90
2014,05,01,09,12,12.10
2014,05,01,09,13,12.20
2014,05,01,09,14,12.30
2014,05,01,09,15,12.50
2014,05,01,09,16,12.60
2014,05,01,09,17,12.80
2014,05,01,09,18,12.90
2014,05,01,09,19,13.00
2014,05,01,09,20,13.10
2014,05,01,09,21,13.20
2014,05,01,09,22,13.30
2014,05,01,09,23,13.40
2014,05,01,09,24,13.50
2014,05,01,09,25,13.60
2014,05,01,09,26,13.70
2014,05,01,09,27,13.80
2014,05,01,09,28,13.90
2014,05,01,09,29,13.90
2014,05,01,09,30,14.00
2014,05,01,09,31,14.10
2014,05,01,09,32,14.20
2014,05,01,09,33,14.30
2014,05,01,09,34,14.30
2014,05,01,09,35,14.40
2014,05,01,09,36,14.50
2014,05,01,09,37,14.60
2014,05,01,09,38,14.60
2014,05,01,09,39,14.60
2014,05,01,09,40,14.70
2014,05,01,09,41,14.70
2014,05,01,09,42,14.70
2014,05,01,09,43,14.70
2014,05,01,09,44,14.70
2014,05,01,09,45,14.70
2014,05,01,09,46,14.80
2014,05,01,09,47,14.80
2014,05,01,09,48,14.80
2014,05,01,09,49,14.80
2014,05,01,09,50,14.80
2014,05,01,09,51,14.90
2014,05,01,09,52,14.90
2014,05,01,09,53,15.00
2014,05,01,09,54,15.00
2014,05,01,09,55,15.00
2014,05,01,09,56,15.00
2014,05,01,09,57,15.00
2014,05,01,09,58,15.00
2014,05,01,09,59,15.00
2014,05,01,10,00,15.00
2014,05,01,10,01,15.00
2014,05,01,10,02,15.00
2014,05,01,10,03,15.00
2014,05,01,10,04,15.00
2014,05,01,10,05,15.20
2014,05,01,10,06,15.30
2014,05,01,10,07,15.40
2014,05,01,10,08,15.60
2014,05,01,10,09,15.70
2014,05,01,10,10,15.80
2014,05,01,10,11,15.90
2014,05,01,10,12,16.00
2014,05,01,10,13,16.10
2014,05,01,10,14,16.20
2014,05,01,10,15,16.20
2014,05,01,10,16,16.30
2014,05,01,10,17,16.30
2014,05,01,10,18,16.40
2014,05,01,10,19,16.40
2014,05,01,10,20,16.50
2014,05,01,10,21,16.60
2014,05,01,10,22,16.70
2014,05,01,10,23,16.90
2014,05,01,10,24,17.00
2014,05,01,10,25,17.10
2014,05,01,10,26,17.20
2014,05,01,10,27,17.30
2014,05,01,10,28,17.50
2014,05,01,10,29,17.60
2014,05,01,10,30,17.70
2014,05,01,10,31,17.80
2014,05,01,10,32,18.00
2014,05,01,10,33,18.10
2014,05,01,10,34,18.10
2014,05,01,10,35,18.20
2014,05,01,10,36,18.20
2014,05,01,10,37,18.30
2014,05,01,10,38,18.40
2014,05,01,10,39,18.50
2014,05,01,10,40,18.60
2014,05,01,10,41,18.60
2014,05,01,10,42,18.70
2014,05,01,10,43,18.70
2014,05,01,10,44,18.80
2014,05,01,10,45,18.80
2014,05,01,10,46,18.90
2014,05,01,10,47,18.90
2014,05,01,10,48,18.90
2014,05,01,10,49,18.90
2014,05,01,10,50,19.00
2014,05,01,10,51,19.00
2014,05,01,10,52,19.00
2014,05,01,10,53,19.10
2014,05,01,10,54,19.10
2014,05,01,10,55,19.20
2014,05,01,10,56,19.20
2014,05,01,10,57,19.20
2014,05,01,10,58,19.20
2014,05,01,10,59,19.20
2014,05,01,11,00,19.20
2014,05,01,11,01,19.20
2014,05,01,11,02,19.20
2014,05,01,11,03,19.20
2014,05,01,11,04,19.20
2014,05,01,11,05,19.20
2014,05,01,11,06,19.20
2014,05,01,11,07,19.30
2014,05,01,11,08,19.30
2014,05,01,11,09,19.30
2014,05,01,11,10,19.40
2014,05,01,11,11,19.40
2014,05,01,11,12,19.40
2014,05,01,11,13,19.50
2014,05,01,11,14,19.50
2014,05,01,11,15,19.60
2014,05,01,11,16,19.60
2014,05,01,11,17,19.60
2014,05,01,11,18,19.70
2014,05,01,11,19,19.70
2014,05,01,11,20,19.70
2014,05,01,11,21,19.70
2014,05,01,11,22,19.70
2014,05,01,11,23,19.70
2014,05,01,11,24,19.70
2014,05,01,11,25,19.80
2014,05,01,11,26,19.80
2014,05,01,11,27,19.80
2014,05,01,11,28,19.80
2014,05,01,11,29,19.90
2014,05,01,11,30,19.90
2014,05,01,11,31,20.00
2014,05,01,11,32,20.00
2014,05,01,11,33,20.10
2014,05,01,11,34,20.10
2014,05,01,11,35,20.10
2014,05,01,11,36,20.20
2014,05,01,11,37,20.20
2014,05,01,11,38,20.30
2014,05,01,11,39,20.30
2014,05,01,11,40,20.40
2014,05,01,11,41,20.40
2014,05,01,11,42,20.40
2014,05,01,11,43,20.50
2014,05,01,11,44,20.50
2014,05,01,11,45,20.60
2014,05,01,11,46,20.60
2014,05,01,11,47,20.70
2014,05,01,11,48,20.70
2014,05,01,11,49,20.80
2014,05,01,11,50,20.80
2014,05,01,11,51,20.90
2014,05,01,11,52,20.90
2014,05,01,11,53,21.00
2014,05,01,11,54,21.10
2014,05,01,11,55,21.10
2014,05,01,11,56,21.20
2014,05,01,11,57,21.30
2014,05,01,11,58,21.40
2014,05,01,11,59,21.50
2014,05,01,12,00,21.60
2014,05,01,12,01,21.70
2014,05,01,12,02,21.80
2014,05,01,12,03,21.80
2014,05,01,12,04,21.90
2014,05,01,12,05,22.00
2014,05,01,12,06,22.10
2014,05,01,12,07,22.20
2014,05,01,12,08,22.30
2014,05,01,12,09,22.40
2014,05,01,12,10,22.40
2014,05,01,12,11,22.50
2014,05,01,12,12,22.50
2014,05,01,12,13,22.50
2014,05,01,12,14,22.60
2014,05,01,12,15,22.60
2014,05,01,12,16,22.60
2014,05,01,12,17,22.60
2014,05,01,12,18,22.60
2014,05,01,12,19,22.60
2014,05,01,12,20,22.60
2014,05,01,12,21,22.60
2014,05,01,12,22,22.70
2014,05,01,12,23,22.70
2014,05,01,12,24,22.70
2014,05,01,12,25,22.80
2014,05,01,12,26,22.80
2014,05,01,12,27,22.80
2014,05,01,12,28,22.90
2014,05,01,12,29,22.90
2014,05,01,12,30,23.00
2014,05,01,12,31,23.00
2014,05,01,12,32,23.10
2014,05,01,12,33,23.10
2014,05,01,12,34,23.10
2014,05,01,12,35,23.00
2014,05,01,12,36,22.90
2014,05,01,12,37,22.90
2014,05,01,12,38,22.80
2014,05,01,12,39,22.80
2014,05,01,12,40,22.70
2014,05,01,12,41,22.60
2014,05,01,12,42,22.50
2014,05,01,12,43,22.40
2014,05,01,12,44,22.40
2014,05,01,12,45,22.40
2014,05,01,12,46,22.40
2014,05,01,12,47,22.40
2014,05,01,12,48,22.40
2014,05,01,12,49,22.40
2014,05,01,12,50,22.40
2014,05,01,12,51,22.30
2014,05,01,12,52,22.30
2014,05,01,12,53,22.30
2014,05,01,12,54,22.30
2014,05,01,12,55,22.20
2014,05,01,12,56,22.20
2014,05,01,12,57,22.20
2014,05,01,12,58,22.20
2014,05,01,12,59,22.30
2014,05,01,13,00,22.30
2014,05,01,13,01,22.30
2014,05,01,13,02,22.30
2014,05,01,13,03,22.30
2014,05,01,13,04,22.30
2014,05,01,13,05,22.40
2014,05,01,13,06,22.40
2014,05,01,13,07,22.40
2014,05,01,13,08,22.40
2014,05,01,13,09,22.50
2014,05,01,13,10,22.40
2014,05,01,13,11,22.40
2014,05,01,13,12,22.40
2014,05,01,13,13,22.50
2014,05,01,13,14,22.50
2014,05,01,13,15,22.60
2014,05,01,13,16,22.60
2014,05,01,13,17,22.60
2014,05,01,13,18,22.60
2014,05,01,13,19,22.60
2014,05,01,13,20,22.50
2014,05,01,13,21,22.50
2014,05,01,13,22,22.50
2014,05,01,13,23,22.50
2014,05,01,13,24,22.50
2014,05,01,13,25,22.40
2014,05,01,13,26,22.40
2014,05,01,13,27,22.50
2014,05,01,13,28,22.50
2014,05,01,13,29,22.50
2014,05,01,13,30,22.60
2014,05,01,13,31,22.60
2014,05,01,13,32,22.60
2014,05,01,13,33,22.70
2014,05,01,13,34,22.70
2014,05,01,13,35,22.70
2014,05,01,13,36,22.70
2014,05,01,13,37,22.70
2014,05,01,13,38,22.70
2014,05,01,13,39,22.70
2014,05,01,13,40,22.70
2014,05,01,13,41,22.80
2014,05,01,13,42,22.80
2014,05,01,13,43,22.90
2014,05,01,13,44,22.90
2014,05,01,13,45,23.00
2014,05,01,13,46,23.00
2014,05,01,13,47,23.00
2014,05,01,13,48,23.00
2014,05,01,13,49,23.00
2014,05,01,13,50,23.10
2014,05,01,13,51,23.00
2014,05,01,13,52,23.00
2014,05,01,13,53,23.00
2014,05,01,13,54,23.00
2014,05,01,13,55,23.00
2014,05,01,13,56,23.10
2014,05,01,13,57,23.10
2014,05,01,13,58,23.10
2014,05,01,13,59,23.20
2014,05,01,14,00,23.20
2014,05,01,14,01,23.20
2014,05,01,14,02,23.10
2014,05,01,14,03,23.10
2014,05,01,14,04,23.10
2014,05,01,14,05,23.20
2014,05,01,14,06,23.20
2014,05,01,14,07,23.30
2014,05,01,14,08,23.40
2014,05,01,14,09,23.50
2014,05,01,14,10,23.60
2014,05,01,14,11,23.70
2014,05,01,14,12,23.80
2014,05,01,14,13,23.80
2014,05,01,14,14,23.80
2014,05,01,14,15,23.90
2014,05,01,14,16,23.90
2014,05,01,14,17,23.90
2014,05,01,14,18,24.00
2014,05,01,14,19,24.00
2014,05,01,14,20,24.10
2014,05,01,14,21,24.20
2014,05,01,14,22,24.20
2014,05,01,14,23,24.20
2014,05,01,14,24,24.20
2014,05,01,14,25,24.20
2014,05,01,14,26,24.30
2014,05,01,14,27,24.30
2014,05,01,14,28,24.40
2014,05,01,14,29,24.50
2014,05,01,14,30,24.60
2014,05,01,14,31,24.70
2014,05,01,14,32,24.80
2014,05,01,14,33,24.80
2014,05,01,14,34,24.90
2014,05,01,14,35,25.00
2014,05,01,14,36,25.00
2014,05,01,14,37,25.10
2014,05,01,14,38,25.20
2014,05,01,14,39,25.20
2014,05,01,14,40,25.20
2014,05,01,14,41,25.30
2014,05,01,14,42,25.40
2014,05,01,14,43,25.50
2014,05,01,14,44,25.50
2014,05,01,14,45,25.60
2014,05,01,14,46,25.70
2014,05,01,14,47,25.80
2014,05,01,14,48,25.90
2014,05,01,14,49,25.90
2014,05,01,14,50,26.00
2014,05,01,14,51,26.10
2014,05,01,14,52,26.20
2014,05,01,14,53,26.30
2014,05,01,14,54,26.40
2014,05,01,14,55,26.50
2014,05,01,14,56,26.60
2014,05,01,14,57,26.60
2014,05,01,14,58,26.70
2014,05,01,14,59,26.80
2014,05,01,15,00,26.80
2014,05,01,15,01,27.00
2014,05,01,15,02,27.00
2014,05,01,15,03,27.10
2014,05,01,15,04,27.20
2014,05,01,15,05,27.20
2014,05,01,15,06,27.30
2014,05,01,15,07,27.30
2014,05,01,15,08,27.30
2014,05,01,15,09,27.20
2014,05,01,15,10,27.20
2014,05,01,15,11,27.10
2014,05,01,15,12,26.90
2014,05,01,15,13,26.80
2014,05,01,15,14,26.70
2014,05,01,15,15,26.60
2014,05,01,15,16,26.50
2014,05,01,15,17,26.40
2014,05,01,15,18,26.40
2014,05,01,15,19,26.50
2014,05,01,15,20,26.50
2014,05,01,15,21,26.50
2014,05,01,15,22,26.60
2014,05,01,15,23,26.60
2014,05,01,15,24,26.70
2014,05,01,15,25,26.80
2014,05,01,15,26,26.80
2014,05,01,15,27,26.80
2014,05,01,15,28,26.80
2014,05,01,15,29,26.80
2014,05,01,15,30,26.80
2014,05,01,15,31,26.80
2014,05,01,15,32,26.90
2014,05,01,15,33,26.90
2014,05,01,15,34,26.90
2014,05,01,15,35,26.90
2014,05,01,15,36,25.30
2014,05,01,15,37,25.20
2014,05,01,15,38,25.20
2014,05,01,15,39,25.20
2014,05,01,15,40,25.30
2014,05,01,15,41,25.30
2014,05,01,15,42,25.30
2014,05,01,15,43,25.30
2014,05,01,15,44,25.40
2014,05,01,15,45,25.30
2014,05,01,15,46,25.30
2014,05,01,15,47,25.30
2014,05,01,15,48,25.30
2014,05,01,15,49,25.30
2014,05,01,15,50,25.40
2014,05,01,15,51,25.40
2014,05,01,15,52,25.40
2014,05,01,15,53,25.50
2014,05,01,15,54,25.50
2014,05,01,15,55,25.50
2014,05,01,15,56,25.50
2014,05,01,15,57,25.50
2014,05,01,15,58,25.40
2014,05,01,15,59,25.50
2014,05,01,16,00,25.50
2014,05,01,16,01,25.50
2014,05,01,16,02,25.50
2014,05,01,16,03,25.50
2014,05,01,16,04,25.50
2014,05,01,16,05,25.50
2014,05,01,16,06,25.40
2014,05,01,16,07,25.40
2014,05,01,16,08,25.40
2014,05,01,16,09,25.40
2014,05,01,16,10,25.50
2014,05,01,16,11,25.50
2014,05,01,16,12,25.60
2014,05,01,16,13,25.60
2014,05,01,16,14,25.70
2014,05,01,16,15,25.70
2014,05,01,16,16,25.80
2014,05,01,16,17,25.80
2014,05,01,16,18,25.80
2014,05,01,16,19,25.80
2014,05,01,16,20,25.80
2014,05,01,16,21,25.70
2014,05,01,16,22,25.70
2014,05,01,16,23,25.70
2014,05,01,16,24,25.70
2014,05,01,16,25,25.80
2014,05,01,16,26,25.80
2014,05,01,16,27,25.80
2014,05,01,16,28,25.80
2014,05,01,16,29,25.80
2014,05,01,16,30,25.70
2014,05,01,16,31,25.80
2014,05,01,16,32,25.80
2014,05,01,16,33,25.80
2014,05,01,16,34,25.80
2014,05,01,16,35,25.80
2014,05,01,16,36,25.80
2014,05,01,16,37,25.80
2014,05,01,16,38,25.70
2014,05,01,16,39,25.70
2014,05,01,16,40,25.70
2014,05,01,16,41,25.60
2014,05,01,16,42,25.60
2014,05,01,16,43,25.60
2014,05,01,16,44,25.60
2014,05,01,16,45,25.50
2014,05,01,16,46,25.50
2014,05,01,16,47,25.40
2014,05,01,16,48,25.40
2014,05,01,16,49,25.40
2014,05,01,16,50,25.40
2014,05,01,16,51,25.40
2014,05,01,16,52,25.30
2014,05,01,16,53,25.30
2014,05,01,16,54,25.40
2014,05,01,16,55,25.40
2014,05,01,16,56,25.40
2014,05,01,16,57,25.40
2014,05,01,16,58,25.40
2014,05,01,16,59,25.40
2014,05,01,17,00,25.40
2014,05,01,17,01,25.40
2014,05,01,17,02,25.40
2014,05,01,17,03,25.30
2014,05,01,17,04,25.30
2014,05,01,17,05,25.30
2014,05,01,17,06,25.40
2014,05,01,17,07,25.40
2014,05,01,17,08,25.40
2014,05,01,17,09,25.40
2014,05,01,17,10,25.40
2014,05,01,17,11,25.40
2014,05,01,17,12,25.40
2014,05,01,17,13,25.40
2014,05,01,17,14,25.40
2014,05,01,17,15,25.30
2014,05,01,17,16,25.30
2014,05,01,17,17,25.30
2014,05,01,17,18,25.30
2014,05,01,17,19,25.30
2014,05,01,17,20,25.30
2014,05,01,17,21,25.30
2014,05,01,17,22,25.30
2014,05,01,17,23,25.40
2014,05,01,17,24,25.30
2014,05,01,17,25,25.30
2014,05,01,17,26,25.30
2014,05,01,17,27,25.30
2014,05,01,17,28,25.30
2014,05,01,17,29,25.30
2014,05,01,17,30,25.30
2014,05,01,17,31,25.30
2014,05,01,17,32,25.30
2014,05,01,17,33,25.40
2014,05,01,17,34,25.40
2014,05,01,17,35,25.40
2014,05,01,17,36,25.40